TimeEDT,TemperatureF,Dew PointF,Humidity,Sea Level PressureIn,VisibilityMPH,Wind Direction,Wind SpeedMPH,Gust SpeedMPH,PrecipitationIn,Events,Conditions,WindDirDegrees,DateUTC
12:18 AM,66.2,64.4,94,29.69,8.0,Calm,Calm,-,N/A,,Overcast,0,2013-09-13 04:18:00
12:35 AM,66.2,66.2,100,29.68,9.0,South,3.5,-,0.00,Rain,Light Rain,170,2013-09-13 04:35:00
12:52 AM,66.0,64.9,96,29.68,9.0,Calm,Calm,-,0.00,Rain,Light Rain,0,2013-09-13 04:52:00
1:52 AM,66.0,64.9,96,29.66,10.0,Calm,Calm,-,0.00,Rain,Light Rain,0,2013-09-13 05:52:00
2:41 AM,66.2,64.4,94,29.65,10.0,Calm,Calm,-,0.01,Rain,Light Rain,0,2013-09-13 06:41:00
2:52 AM,66.0,64.9,96,29.64,10.0,Calm,Calm,-,0.01,Rain,Light Rain,0,2013-09-13 06:52:00
3:21 AM,66.2,64.4,94,29.64,6.0,Calm,Calm,-,0.01,Rain,Light Rain,0,2013-09-13 07:21:00
3:29 AM,66.2,64.4,94,29.64,5.0,Calm,Calm,-,0.02,Rain,Light Rain,0,2013-09-13 07:29:00
3:52 AM,66.0,64.9,96,29.62,8.0,Calm,Calm,-,0.02,,Overcast,0,2013-09-13 07:52:00
4:14 AM,66.2,64.4,94,29.62,8.0,Calm,Calm,-,N/A,,Overcast,0,2013-09-13 08:14:00
4:52 AM,64.9,64.9,100,29.62,7.0,Calm,Calm,-,N/A,,Overcast,0,2013-09-13 08:52:00
5:52 AM,64.9,64.0,97,29.63,10.0,Calm,Calm,-,0.01,Rain,Light Rain,0,2013-09-13 09:52:00
6:52 AM,64.9,64.0,97,29.64,6.0,Calm,Calm,-,0.00,Rain,Light Rain,0,2013-09-13 10:52:00
7:09 AM,64.4,64.4,100,29.64,5.0,Calm,Calm,-,0.00,,Scattered Clouds,0,2013-09-13 11:09:00
7:52 AM,64.9,64.0,97,29.64,7.0,Calm,Calm,-,0.00,,Clear,0,2013-09-13 11:52:00
8:21 AM,66.2,64.4,94,29.64,9.0,Calm,Calm,-,N/A,,Partly Cloudy,0,2013-09-13 12:21:00
8:52 AM,68.0,64.0,87,29.64,10.0,NW,4.6,-,N/A,,Overcast,320,2013-09-13 12:52:00
9:04 AM,69.8,62.6,78,29.64,10.0,Calm,Calm,-,N/A,,Scattered Clouds,0,2013-09-13 13:04:00
9:13 AM,68.0,62.6,83,29.64,10.0,WNW,4.6,-,N/A,,Mostly Cloudy,290,2013-09-13 13:13:00
9:36 AM,69.8,62.6,78,29.64,10.0,NW,4.6,-,N/A,,Mostly Cloudy,320,2013-09-13 13:36:00
9:52 AM,69.1,62.1,78,29.64,10.0,Variable,3.5,-,N/A,,Mostly Cloudy,0,2013-09-13 13:52:00
10:04 AM,69.8,62.6,78,29.64,10.0,West,3.5,-,N/A,,Overcast,270,2013-09-13 14:04:00
10:36 AM,69.8,62.6,78,29.64,10.0,WNW,5.8,-,N/A,,Overcast,300,2013-09-13 14:36:00
10:52 AM,70.0,63.0,78,29.63,10.0,WNW,8.1,-,N/A,,Overcast,290,2013-09-13 14:52:00
11:52 AM,71.1,63.0,75,29.63,10.0,NNW,10.4,-,0.01,,Scattered Clouds,330,2013-09-13 15:52:00
12:52 PM,73.0,62.1,68,29.62,10.0,NW,12.7,16.1,N/A,,Partly Cloudy,320,2013-09-13 16:52:00
1:52 PM,70.0,60.1,71,29.62,10.0,NNW,15.0,-,N/A,,Partly Cloudy,330,2013-09-13 17:52:00
2:52 PM,68.0,57.9,70,29.64,10.0,North,15.0,-,N/A,,Overcast,350,2013-09-13 18:52:00
3:52 PM,64.9,60.1,84,29.65,10.0,NW,9.2,-,0.01,Rain,Light Rain,320,2013-09-13 19:52:00
4:52 PM,64.9,59.0,81,29.67,10.0,North,10.4,-,0.00,,Overcast,350,2013-09-13 20:52:00
5:52 PM,66.0,57.0,73,29.68,10.0,North,11.5,-,N/A,,Partly Cloudy,350,2013-09-13 21:52:00
6:50 PM,62.6,55.4,77,29.71,10.0,NW,11.5,-,N/A,,Overcast,310,2013-09-13 22:50:00
6:52 PM,63.0,55.9,78,29.72,10.0,NW,12.7,-,N/A,,Overcast,310,2013-09-13 22:52:00
7:09 PM,62.6,55.4,77,29.73,10.0,NW,12.7,-,N/A,,Overcast,320,2013-09-13 23:09:00
7:52 PM,60.1,54.0,80,29.75,10.0,NW,10.4,-,N/A,,Overcast,320,2013-09-13 23:52:00
8:52 PM,59.0,53.1,81,29.78,10.0,NW,8.1,-,N/A,,Overcast,310,2013-09-14 00:52:00
9:20 PM,59.0,53.6,82,29.79,10.0,NNW,8.1,-,N/A,,Overcast,330,2013-09-14 01:20:00
9:52 PM,59.0,52.0,78,29.78,10.0,NW,6.9,-,N/A,,Overcast,320,2013-09-14 01:52:00
10:52 PM,57.9,52.0,81,29.80,10.0,NW,6.9,-,N/A,,Overcast,310,2013-09-14 02:52:00
11:52 PM,57.0,50.0,77,29.81,10.0,NW,10.4,-,N/A,,Overcast,310,2013-09-14 03:52:00